Voltar ao catálogo

COSMOS 2251 DEB

AtivoLEO
NORAD 34965·DEBRIS·🇷🇺 Russia

Lançado Jun 16, 1993 de Plesetsk Cosmodrome

Loading…

Próximas Passagens (próximas 24 horas)

TLE

AtualizadoSource: Space-Track

Época: Sep 14, 2026, 04:41 UTC

1 34965U 93036AEU 26257.19575448  .00000498  00000-0  13735-3 0  9996
2 34965  74.0532 332.5268 0025208  26.1481 334.0945 14.49230044911031

Acompanhe COSMOS 2251 DEB em tempo real com AllMySat

Download on the App Store